Terminal Aerodrome Forecast
Issued by NWS La Crosse, WI

Home | Current Version | Previous Version | Text Only | Print | Product List | Glossary On
Versions: 1 2 3 4 5 6 7 8 9 10 11 12 13 14 15 16 17 18 19 20 21 22 23 24 25 26 27 28 29 30 31 32 33 34 35 36 37 38 39 40 41 42 43 44
090
FTUS43 KARX 232325
TAFRST
TAF
KRST 232325Z 2400/2424 29005KT P6SM OVC015
     FM240400 VRB04KT 5SM BR OVC008
     FM241600 11008KT 6SM BR OVC010
     FM242200 09012G20KT 1 1/2SM -SN OVC006=

USA.gov is the U.S. government's official web portal to all federal, state and local government web resources and services.